Location: De Har
(53.3413°N, 6.6858°E)
Time: 21:00:22
(UTC+00:00)

NOSS 3-3 (C) - Pass Details

Date: 22 April 2026
Orbit: 697 x 1516 km, 63.4° (Epoch: 11 January)

Event Time Altitude Azimuth Distance (km) Brightness Sun altitude
Exits shadow 01:30:27 30° 173° (S) 1,418 4.4 -19.8°
Maximum altitude 01:32:36 45° 123° (ESE) 1,159 4.4 -19.6°
Drops below altitude 10° 01:38:32 10° 53° (NE) 2,752 7.4 -19.1°
Sets 01:41:30 0° 48° (NE) 3,842 8.6 -18.9°
